RLFL14 (46268 NORAD) Tracking and Keplerian Element Data

This shows tracking and keplerian element data for the satellite.

Feedback or suggestion? Click here.




ElementValue
Catalog46268
NameRLFL14
Epoch Orbit374
Epoch Day268.90286359
Epoch Year2020
RAAN199.7959
Inclination45.1016
Eccentricity0.0012125
Argument of Perigee41.0528
Mean Anonmoly319.1258
Mean Motion15.09560845
Decay Rate3.42E-06
L11 46268U 20060A 20268.90286359 .00000342 00000-0 36437-4 0 9990
L22 46268 45.1016 199.7959 0012125 41.0528 319.1258 15.09560845 3741

Live tracking and technical data element details for RLFL14 (NORAD 46268). RLFL14 can be tracked NOW for your location showing map with azimuth and elevation plus other details from your city location.

Track the satellite on the map from your city or location and see movement details for azimuth, elevation, latitude, longitude, range, height, and movement on the map or in text.







IsCatalogInMostPopularTable: catalog: 46268, numindb: 1
Update: records affected: 1



GetName: 46268 RLFL14

Hit Count: updated at: Mon, 28 Sep 2020 20:33:27 GMT